User: anonymous
Location: Unspecified
(0.0000°N, 0.0000°E)
Time: 00:19:43
(UTC+02:00)
Language:

Cosmos 1536 - Orbit

View from above orbital plane
View from above orbital plane
View from above satellite
View from above satellite

Ground track
Ground track

The orbit data is extracted from the following two-line orbital elements,

1 14699U 84013A   14273.39425467  .00003128  00000-0  23325-3 0  1996
2 14699 082.5279 207.5651 0013447 181.9657 178.1518 15.02500845664148
Epoch (UTC): 30 September 2014 09:27:43
Eccentricity: 0.0013447
inclination: 82.5279°
perigee height: 550 km
apogee height: 568 km
right ascension of ascending node: 207.5651°
argument of perigee: 181.9657°
revolutions per day: 15.02500845
mean anomaly at epoch: 178.1518°
orbit number at epoch: 66414

The dashed part of the orbit path shows where the satellite is in the earth's shadow,  

DLR